Starlink 5973

operational
NORAD ID: 56916 Int'l Des: 2023-083 Owner: SPXS Country: US Constellation: starlink
LEOCIRCULAR

Über Starlink 5973

Beschreibung wird geladen...

Live-Position

3D-Globus wird geladen...

Nächste Überflüge

Höhenverlauf

Altitude vs Time

uPlot chart will show altitude changes over time

Zweizeiliger Elementsatz

1 56916U 23083AS 26062.18275584 .00000039 00000-0 17948-4 0 9994
2 56916 43.0018 103.9532 0001216 261.6928 98.3777 15.02536177150815
Epoch: 3. März 2026 • Age: 23 hours

Aktueller Status

Höhe 560.2 km
Geschwindigkeit 7.58 km/s
Subsatellitenpunkt -8.27°S, 63.2°W
Startdatum 12. Juni 2023
Alter 2.7 years
Typ internet

Technische Details

Klassifizierung Payload
Masse 305.00 kg
Trockenmasse 290.00 kg
Gesamtmasse 305.00 kg
Länge 0.20 m
Durchmesser 2.80 m
Spannweite 9.00 m
Form Box + pan
Hersteller SPXS
Bus-Typ Starlink
Phasenstatus In Orbit
Besitzer/Staat SPXS/US

Große Konstellationen

Loading constellations...